Zurück zum Katalog

STARLINK-36140

AktivKommunikationVLEO
NORAD 67034·PAYLOAD·🇺🇸 United States

Gestartet Dec 11, 2025 von Cape Canaveral Space Force Station

Loading…

Nächste Überflüge (nächste 24 Stunden)

TLE

AktuellSource: CelesTrak SupGP

Epoche: Sep 15, 2026, 02:43 UTC

1 67034C 25294E   26258.11368056 -.00021155  00000+0 -76602-3 0  2582
2 67034  43.0006  48.6237 0001636 268.4495 160.0835 15.27597710    17

Verfolge STARLINK-36140 in Echtzeit mit AllMySat

Download on the App Store